Qianfan Jigui 06-11

operational
NORAD ID: 62795 Int'l Des: 2025-016 Owner: YUANX Country: CN Constellation: qianfan
LEOCIRCULARPOLAR

About Qianfan Jigui 06-11

Description loading...

Live Position

Loading 3D Globe...

Upcoming Passes

Altitude History

Altitude vs Time

uPlot chart will show altitude changes over time

Two-Line Element Set

1 62795U 25016L 25277.85047332 .00000088 00000-0 11728-3 0 9996
2 62795 88.9729 110.1889 0013831 175.3234 184.8048 13.50970783 37942
Epoch: Oct 4, 2025 • Age: 10 hours

Current Status

Altitude 1098.7 km
Velocity 7.30 km/s
Sub-Earth Point -88.91°S, 73.05°W
Launch Date Jan 23, 2025
Age 0.6 years
Type internet

Technical Details

Classification Payload
Mass 267.00 kg
Dry Mass 267.00 kg
Total Mass 267.00 kg
Length 0.30 m
Diameter 3.00 m
Span 10.00 m
Shape Box+pan
Manufacturer SECM
Bus Type Qianfan
Phase Status In Orbit
Owner/State YUANX/CN

Large Constellations

Loading constellations...